Location: *
(31.2983°S, 151.4094°E)
Time: 18:27:13
(UTC+00:00)

ATLAS 3B R/B - Pass Details

Date: 25 August 2019
Orbit: 1016 x 1179 km, 63.7° (Epoch: 11 August)

Event Time Altitude Azimuth Distance (km) Brightness Sun altitude
Rises 18:57:45 0° 203° (SSW) 4,068 5.5 -18.0°
Reaches altitude 10° 19:00:42 10° 197° (SSW) 3,086 4.9 -17.4°
Maximum altitude 19:07:42 45° 125° (SE) 1,514 3.9 -15.9°
Drops below altitude 10° 19:14:24 10° 54° (NE) 2,955 5.9 -14.4°
Sets 19:17:09 0° 47° (NE) 3,881 6.5 -13.9°
